Location: Aiyekoto
(8.4333°N, 4.3667°E)
Time: 22:27:58
(UTC+00:00)

ATLAS 5 CENTAUR R/B - Pass Details

Date: 05 October 2020
Orbit: 527 x 1131 km, 63.4° (Epoch: 28 October)

Event Time Altitude Azimuth Distance (km) Brightness Sun altitude
Rises 18:40:10 0° 191° (S) 2,763 5.1 -17.9°
Reaches altitude 10° 18:42:33 10° 184° (S) 1,816 4.0 -18.5°
Enters shadow 18:45:40 37° 139° (SE) 839 1.9 -19.2°
